Location: Poughquag
(41.6090°N, 73.6820°W)
Time: 17:14:04
(UTC-05:00)

METEOR M2 - Visible Passes

Search period start: 28 November 2023 00:00
Search period end: 08 December 2023 00:00
Orbit: 819 x 826 km, 98.4° (Epoch: 28 November)

Date Brightness Start Highest point End Pass type
(mag) Time Alt. Az. Time Alt. Az. Time Alt. Az.
28 Nov ? 05:45:43 10° NNE 05:51:06 76° ESE 05:56:28 10° S visible
28 Nov ? 17:08:19 10° S 17:13:40 68° WSW 17:19:03 10° NNW visible
29 Nov ? 05:25:46 10° NNE 05:30:59 50° E 05:36:10 10° S visible
29 Nov ? 16:48:13 10° SSE 16:53:35 81° ENE 16:58:59 10° N visible
29 Nov ? 18:32:04 10° WSW 18:34:21 13° W 18:36:39 10° WNW visible
30 Nov ? 05:05:59 10° NNE 05:10:49 33° E 05:15:36 10° SSE visible
30 Nov ? 18:10:12 10° SW 18:14:02 20° W 18:17:53 10° NW visible
01 Dec ? 04:46:27 10° NE 04:50:34 22° E 04:54:39 10° SE visible
01 Dec ? 06:25:49 10° N 06:30:57 48° WNW 06:36:04 10° SW visible
01 Dec ? 17:49:07 10° SSW 17:53:47 30° W 17:58:28 10° NW visible
02 Dec ? 04:27:26 10° ENE 04:30:16 14° E 04:33:06 10° ESE visible
02 Dec ? 06:05:35 10° N 06:10:57 72° WNW 06:16:16 10° SSW visible
02 Dec ? 17:28:28 10° S 17:33:35 44° W 17:38:44 10° NNW visible
03 Dec ? 05:45:30 10° NNE 05:50:53 77° ESE 05:56:14 10° S visible
03 Dec ? 17:08:05 10° S 17:13:26 68° WSW 17:18:50 10° NNW visible
04 Dec ? 05:25:32 10° NNE 05:30:46 50° E 05:35:57 10° S visible
04 Dec ? 16:47:59 10° SSE 16:53:22 81° ENE 16:58:47 10° NNW visible
04 Dec ? 18:31:55 10° WSW 18:34:08 12° W 18:36:22 10° WNW visible
05 Dec ? 05:05:45 10° NNE 05:10:35 33° E 05:15:23 10° SSE visible
05 Dec ? 18:10:01 10° SW 18:13:49 19° W 18:17:39 10° NW visible
06 Dec ? 04:46:13 10° NE 04:50:20 22° E 04:54:27 10° SE visible
06 Dec ? 06:25:35 10° N 06:30:44 47° WNW 06:35:49 10° SW visible
06 Dec ? 17:48:55 10° SSW 17:53:33 29° W 17:58:13 10° NW visible
07 Dec ? 04:27:10 10° ENE 04:30:02 14° E 04:32:53 10° ESE visible
07 Dec ? 06:05:22 10° N 06:10:43 71° WNW 06:16:02 10° SSW visible
07 Dec ? 17:28:15 10° S 17:33:21 44° W 17:38:30 10° NNW visible
